Back to catalog

IRIS

AliveScienceSSO
NORAD 39197·PAYLOAD·🇺🇸 United States

Launched Jun 28, 2013 from Vandenberg Space Force Base

Loading…

Next Passes (next 24 hours)

TLE

FreshSource: Space-Track

Epoch: Sep 14, 2026, 12:31 UTC

1 39197U 13033A   26257.52188952  .00000729  00000-0  89324-4 0  9999
2 39197  97.9281  96.5144 0025131  29.5071 330.7556 14.86035771713644

Track IRIS in real time with AllMySat

Download on the App Store